Hourly Data Report for January 13, 2018

All times are specified in Local Standard Time (LST). Add 1 hour to adjust for Daylight Saving Time where and when it is observed.

SASKATOON RCS
SASKATCHEWAN

52°10'25.000" N
106°43'08.001" W
504.10 m
4057165
71496
POX

Download Data

Hourly Data (January 2018)
Hourly Data Report for January 13, 2018
Temp Definition
°C
Dew Point Temp Definition
°C
Rel Hum Definition
%
Wind Dir Definition
10's deg

Wind Spd Definition
km/h
Visibility Definition
km
Stn Press Definition
kPa
Hmdx Definition


Wind Chill Definition


Weather Definition


TIME
00:00 -25.4 -28.5 75 16 10   97.14   -34 LegendNANA
01:00 -25.2 -28.8 72 16 16   97.07   -36 LegendNANA
02:00 -25.0 -28.6 72 14 16   96.93   -36 LegendNANA
03:00 -25.8 -29.1 73 18 6   96.89   -32 LegendNANA
04:00 -26.2 -29.4 74 14 7   96.82   -33 LegendNANA
05:00 -25.2 -28.5 74 15 11   96.70   -34 LegendNANA
06:00 -25.2 -28.4 74 17 10   96.66   -33 LegendNANA
07:00 -24.9 -28.4 73 18 10   96.61   -33 LegendNANA
08:00 -24.9 -28.4 73 18 12   96.55   -34 LegendNANA
09:00 -25.0 -28.2 74 19 11   96.52   -34 LegendNANA
10:00 -24.5 -27.8 74 20 11   96.50   -33 LegendNANA
11:00 -22.9 -26.5 72 19 13   96.46   -32 LegendNANA
12:00 -21.4 -25.3 71 20 15   96.40   -31 LegendNANA
13:00 -19.3 -23.1 72 22 21   96.29   -30 LegendNANA
14:00 -17.8 -22.5 67 21 18   96.21   -27 LegendNANA
15:00 -17.3 -22.0 66 22 19   96.19   -27 LegendNANA
16:00 -15.9 -21.3 63 21 21   96.14   -26 LegendNANA
17:00 -15.4 -20.4 66 21 18   96.11   -24 LegendNANA
18:00 -16.1 -20.3 70 21 18   96.09   -25 LegendNANA
19:00 -15.5 -19.0 74 21 17   96.03   -24 LegendNANA
20:00 -14.5 -17.6 78 21 16   95.99   -23 LegendNANA
21:00 -15.3 -18.1 79 21 14   95.96   -23 LegendNANA
22:00 -13.7 -16.2 81 24 15   95.90   -21 LegendNANA
23:00 -13.9 -16.2 83 24 10   95.91   -20 LegendNANA

Notes on Data Quality.

Legend

  • E = Estimated
  • M = Missing
  • NA = Not Available
  • ‡ = Partner data that is not subject to review by the National Climate Archives
Date modified: